Powrót do katalogu

COSMOS 1867 COOLANT

AktywnyLEO
NORAD 39645·DEBRIS·🇷🇺 Russia

Wystrzelony Jul 10, 1987 z Baikonur Cosmodrome

Loading…

Następne Przeloty (najbliższe 24 godziny)

TLE

ŚwieżeSource: Space-Track

Epoka: Sep 14, 2026, 05:33 UTC

1 39645U 87060N   26257.23127834  .00000126  00000-0  81212-4 0  9997
2 39645  65.0098 122.4974 0019015 279.9701  79.9239 14.33871214650326

Śledź COSMOS 1867 COOLANT w czasie rzeczywistym z AllMySat

Download on the App Store